This is the latest recevied weather packets stored in our database for station/object KA8OAD-10. If no packets are shown the sender has not sent any weather packets the latest 10 day(s).
| Time | Temp. | Humidity | Pressure | Rain* | Wind** | Luminosity | Snow |
|---|---|---|---|---|---|---|---|
| 1787617563 | 21.11° C | 66% | 1015.5 hPa | 0 mm | - | 0 W/m² | - |
| 1787617264 | 21.11° C | 65% | 1015.5 hPa | 0 mm | - | 0 W/m² | - |
| 1787616972 | 21.11° C | 65% | 1015.5 hPa | 0 mm | - | 0 W/m² | - |
| 1787616662 | 21.11° C | 65% | 1015.5 hPa | 0 mm | - | 0 W/m² | - |
| 1787616361 | 21.11° C | 65% | 1015.5 hPa | 0 mm | - | 0 W/m² | - |
| 1787615761 | 21.11° C | 64% | 1015.5 hPa | 0 mm | - | 0 W/m² | - |
| 1787615466 | 21.11° C | 64% | 1015.4 hPa | 0 mm | - | 0 W/m² | - |
| 1787615164 | 21.11° C | 64% | 1015.5 hPa | 0 mm | - | 5 W/m² | - |
| 1787614562 | 21.11° C | 63% | 1015.6 hPa | 0 mm | - | 5 W/m² | - |
| 1787613360 | 21.67° C | 63% | 1015.8 hPa | 0 mm | - | 9 W/m² | - |
| 1787613065 | 21.67° C | 63% | 1015.8 hPa | 0 mm | - | 7 W/m² | - |
| 1787612763 | 21.67° C | 62% | 1015.8 hPa | 0 mm | - | 7 W/m² | - |
| 1787612464 | 21.67° C | 62% | 1015.8 hPa | 0 mm | - | 14 W/m² | - |
| 1787612162 | 21.67° C | 63% | 1015.7 hPa | 0 mm | - | 18 W/m² | - |
| 1787611863 | 21.67° C | 63% | 1015.7 hPa | 0 mm | - | 18 W/m² | - |
| 1787611561 | 21.67° C | 62% | 1015.7 hPa | 0 mm | - | 25 W/m² | - |
| 1787610960 | 21.67° C | 62% | 1015.6 hPa | 0 mm | - | 35 W/m² | - |
| 1787610363 | 21.67° C | 60% | 1015.5 hPa | 0 mm | - | 47 W/m² | - |
| 1787609762 | 21.67° C | 60% | 1015.3 hPa | 0 mm | - | 51 W/m² | - |
| 1787609161 | 22.22° C | 60% | 1015.3 hPa | 0 mm | - | 63 W/m² | - |
| 1787608861 | 22.22° C | 60% | 1015.3 hPa | 0 mm | - | 63 W/m² | - |
| 1787608564 | 22.22° C | 59% | 1015.2 hPa | 0 mm | - | 65 W/m² | - |
| 1787607963 | 22.22° C | 59% | 1015.2 hPa | 0 mm | - | 70 W/m² | - |
| 1787607362 | 22.22° C | 58% | 1015.1 hPa | 0 mm | - | 46 W/m² | - |
| 1787606760 | 22.22° C | 56% | 1015.1 hPa | 0 mm | - | 67 W/m² | - |
* Rain latest hour (hover to see other rain measurements)
** Current wind speed in m/s (hover to see current wind gust speed)